Calgary Springbank,

4:29 AM MDT on September 24, 2017 (GMT -0600)
Calgary Springbank

Weather History for CYBW - September, 2014

Change the Weather History Date:

Tuesday, September 23, 2014

  Actual Average Record
Temperature  
Mean Temperature 58 °F -  
Max Temperature 66 °F 51 °F 80 °F (1997)
Min Temperature 51 °F 28 °F 15 °F (2000)
Degree Days  
Heating Degree Days 6    
Growing Degree Days 8 (Base 50)    
Moisture  
Dew Point 48 °F    
Average Humidity 75    
Maximum Humidity 94    
Minimum Humidity 55    
Precipitation  
Precipitation 0.00 in - - ()
Sea Level Pressure  
Sea Level Pressure 29.94 in    
Wind  
Wind Speed 6 mph ()    
Max Wind Speed 12 mph    
Max Gust Speed -    
Visibility 9.0 miles    
Events Rain    
Averages and records for this station are not official NWS values.
T = Trace of Precipitation, MM = Missing Value Source: Averaged Metar Reports

Daily Weather History Graph

Daily Weather History Graph

Search for Another Location

Airport or City:

Trip Planner

Search our weather history database for the weather conditions in past years. The results will help you decide how hot, cold, wet, or windy it might be!

Date:

Astronomy

Sep. 23, 2014 Rise Set
Actual Time 7:25 AM MDT 7:33 PM MDT
Civil Twilight 6:52 AM MDT 8:06 PM MDT
Nautical Twilight 6:13 AM MDT 8:44 PM MDT
Astronomical Twilight 5:32 AM MDT 9:25 PM MDT
Moon 6:52 AM MDT (9/23) 7:11 PM MDT (9/23)
Length of Visible Light 13h 13m
Length of Day
12h 07m
Waning Crescent, 0% of the Moon is Illuminated
Sep 23
Waning Crescent
Sep 24
New
Oct 1
First Quarter
Oct 8
Full
Oct 15
Last Quarter

Hourly Weather History & Observations

Time (MDT) Temp. Dew Point Humidity Pressure Visibility Wind Dir Wind Speed Gust Speed Precip Events Conditions
12:00 AM 55.4 °F 44.6 °F 67% 29.85 in 9.0 mi Variable 2.3 mph - N/A   Mostly Cloudy
1:00 AM 59.0 °F 42.8 °F 55% 29.83 in 9.0 mi NNW 4.6 mph - N/A   Overcast
2:00 AM 53.6 °F 44.6 °F 72% 29.85 in 9.0 mi North 5.8 mph - N/A   Overcast
3:00 AM 51.8 °F 44.6 °F 76% 29.86 in 9.0 mi NW 11.5 mph - N/A   Partly Cloudy
4:00 AM 53.6 °F 42.8 °F 67% 29.88 in 9.0 mi NW 9.2 mph - N/A   Overcast
5:00 AM 53.6 °F 44.6 °F 72% 29.89 in 9.0 mi WNW 8.1 mph - N/A   Overcast
6:00 AM 53.6 °F 46.4 °F 77% 29.90 in 9.0 mi SSW 4.6 mph - N/A   Overcast
7:00 AM 55.4 °F 44.6 °F 67% 29.95 in 9.0 mi Variable 3.5 mph - N/A   Overcast
8:00 AM 55.4 °F 46.4 °F 72% 29.98 in 9.0 mi NNE 6.9 mph - N/A   Overcast
8:22 AM 53.6 °F 46.4 °F 77% 29.98 in 9.0 mi North 6.9 mph - N/A Rain Light Rain
9:00 AM 53.6 °F 48.2 °F 82% 30.00 in 9.0 mi NW 5.8 mph - N/A Rain Light Rain
9:02 AM 53.6 °F 48.2 °F 82% 30.00 in 9.0 mi NW 6.9 mph - N/A   Mostly Cloudy
9:30 AM 53.6 °F 48.2 °F 82% 30.01 in 9.0 mi WNW 6.9 mph - N/A Rain Light Rain
10:00 AM 53.6 °F 50.0 °F 88% 30.03 in 9.0 mi West 5.8 mph - N/A Rain Light Rain
11:00 AM 53.6 °F 50.0 °F 88% 30.05 in 9.0 mi NW 5.8 mph - N/A Rain Light Rain
11:20 AM 53.6 °F 51.8 °F 94% 30.04 in 9.0 mi NNE 3.5 mph - N/A   Mostly Cloudy
12:00 PM 55.4 °F 51.8 °F 88% 30.02 in 9.0 mi ESE 3.5 mph - N/A   Overcast
1:00 PM 59.0 °F 50.0 °F 72% 29.97 in 9.0 mi ESE 4.6 mph - N/A   Clear
2:00 PM 62.6 °F 51.8 °F 68% 29.97 in 9.0 mi SSE 5.8 mph - N/A   Partly Cloudy
3:00 PM 64.4 °F 51.8 °F 64% 29.95 in 9.0 mi SSE 9.2 mph - N/A   Clear
4:00 PM 66.2 °F 51.8 °F 60% 29.91 in 9.0 mi SSE 10.4 mph - N/A   Clear
5:00 PM 66.2 °F 51.8 °F 60% 29.90 in 9.0 mi SE 10.4 mph - N/A   Scattered Clouds
6:00 PM 66.2 °F 53.6 °F 64% 29.90 in 9.0 mi East 8.1 mph - N/A   Clear
7:00 PM 59.0 °F 51.8 °F 77% 29.90 in 9.0 mi ESE 8.1 mph - N/A   Clear
8:00 PM 57.2 °F 50.0 °F 77% 29.90 in 9.0 mi ESE 8.1 mph - N/A   Scattered Clouds
9:00 PM 57.2 °F 50.0 °F 77% 29.91 in 9.0 mi East 11.5 mph - N/A   Overcast
10:00 PM 53.6 °F 48.2 °F 82% 29.91 in 9.0 mi SE 4.6 mph - N/A   Clear
11:00 PM 51.8 °F 48.2 °F 88% 29.90 in 9.0 mi Variable 2.3 mph - N/A   Mostly Cloudy